Year,Month,Day,Hour,Minute,Value (Times are PST for temperature in C)
2016,04,20,00,00,13.20
2016,04,20,00,01,13.20
2016,04,20,00,02,13.20
2016,04,20,00,03,13.20
2016,04,20,00,04,13.20
2016,04,20,00,05,13.10
2016,04,20,00,06,13.10
2016,04,20,00,07,13.10
2016,04,20,00,08,13.10
2016,04,20,00,09,13.00
2016,04,20,00,10,13.00
2016,04,20,00,11,13.00
2016,04,20,00,12,12.90
2016,04,20,00,13,12.90
2016,04,20,00,14,12.90
2016,04,20,00,15,12.90
2016,04,20,00,16,12.80
2016,04,20,00,17,12.80
2016,04,20,00,18,12.80
2016,04,20,00,19,12.80
2016,04,20,00,20,12.80
2016,04,20,00,21,12.90
2016,04,20,00,22,12.90
2016,04,20,00,23,12.90
2016,04,20,00,24,12.90
2016,04,20,00,25,12.90
2016,04,20,00,26,12.90
2016,04,20,00,27,12.90
2016,04,20,00,28,12.90
2016,04,20,00,29,12.90
2016,04,20,00,30,12.90
2016,04,20,00,31,12.90
2016,04,20,00,32,12.90
2016,04,20,00,33,12.90
2016,04,20,00,34,12.80
2016,04,20,00,35,12.80
2016,04,20,00,36,12.80
2016,04,20,00,37,12.80
2016,04,20,00,38,12.80
2016,04,20,00,39,12.80
2016,04,20,00,40,12.80
2016,04,20,00,41,12.80
2016,04,20,00,42,12.80
2016,04,20,00,43,12.80
2016,04,20,00,44,12.70
2016,04,20,00,45,12.70
2016,04,20,00,46,12.70
2016,04,20,00,47,12.70
2016,04,20,00,48,12.70
2016,04,20,00,49,12.70
2016,04,20,00,50,12.60
2016,04,20,00,51,12.60
2016,04,20,00,52,12.60
2016,04,20,00,53,12.60
2016,04,20,00,54,12.60
2016,04,20,00,55,12.50
2016,04,20,00,56,12.50
2016,04,20,00,57,12.40
2016,04,20,00,58,12.40
2016,04,20,00,59,12.40
2016,04,20,01,00,12.30
2016,04,20,01,01,12.30
2016,04,20,01,02,12.30
2016,04,20,01,03,12.30
2016,04,20,01,04,12.30
2016,04,20,01,05,12.30
2016,04,20,01,06,12.30
2016,04,20,01,07,12.30
2016,04,20,01,08,12.30
2016,04,20,01,09,12.20
2016,04,20,01,10,12.20
2016,04,20,01,11,12.20
2016,04,20,01,12,12.20
2016,04,20,01,13,12.20
2016,04,20,01,14,12.20
2016,04,20,01,15,12.20
2016,04,20,01,16,12.20
2016,04,20,01,17,12.20
2016,04,20,01,18,12.20
2016,04,20,01,19,12.10
2016,04,20,01,20,12.10
2016,04,20,01,21,12.10
2016,04,20,01,22,12.10
2016,04,20,01,23,12.10
2016,04,20,01,24,12.10
2016,04,20,01,25,12.10
2016,04,20,01,26,12.10
2016,04,20,01,27,12.10
2016,04,20,01,28,12.10
2016,04,20,01,29,12.10
2016,04,20,01,30,12.10
2016,04,20,01,31,12.00
2016,04,20,01,32,12.00
2016,04,20,01,33,12.00
2016,04,20,01,34,12.00
2016,04,20,01,35,12.00
2016,04,20,01,36,11.90
2016,04,20,01,37,11.90
2016,04,20,01,38,11.90
2016,04,20,01,39,11.90
2016,04,20,01,40,11.90
2016,04,20,01,41,11.90
2016,04,20,01,42,11.90
2016,04,20,01,43,11.90
2016,04,20,01,44,11.90
2016,04,20,01,45,11.90
2016,04,20,01,46,11.90
2016,04,20,01,47,11.90
2016,04,20,01,48,11.90
2016,04,20,01,49,11.90
2016,04,20,01,50,11.90
2016,04,20,01,51,11.90
2016,04,20,01,52,11.90
2016,04,20,01,53,11.80
2016,04,20,01,54,11.80
2016,04,20,01,55,11.80
2016,04,20,01,56,11.80
2016,04,20,01,57,11.80
2016,04,20,01,58,11.80
2016,04,20,01,59,11.80
2016,04,20,02,00,11.80
2016,04,20,02,01,11.80
2016,04,20,02,02,11.80
2016,04,20,02,03,11.80
2016,04,20,02,04,11.80
2016,04,20,02,05,11.80
2016,04,20,02,06,11.80
2016,04,20,02,07,11.80
2016,04,20,02,08,11.80
2016,04,20,02,09,11.80
2016,04,20,02,10,11.80
2016,04,20,02,11,11.80
2016,04,20,02,12,11.80
2016,04,20,02,13,11.80
2016,04,20,02,14,11.80
2016,04,20,02,15,11.80
2016,04,20,02,16,11.80
2016,04,20,02,17,11.80
2016,04,20,02,18,11.80
2016,04,20,02,19,11.80
2016,04,20,02,20,11.80
2016,04,20,02,21,11.80
2016,04,20,02,22,11.80
2016,04,20,02,23,11.80
2016,04,20,02,24,11.80
2016,04,20,02,25,11.80
2016,04,20,02,26,11.80
2016,04,20,02,27,11.80
2016,04,20,02,28,11.70
2016,04,20,02,29,11.70
2016,04,20,02,30,11.70
2016,04,20,02,31,11.70
2016,04,20,02,32,11.70
2016,04,20,02,33,11.60
2016,04,20,02,34,11.60
2016,04,20,02,35,11.60
2016,04,20,02,36,11.50
2016,04,20,02,37,11.50
2016,04,20,02,38,11.50
2016,04,20,02,39,11.40
2016,04,20,02,40,11.40
2016,04,20,02,41,11.40
2016,04,20,02,42,11.40
2016,04,20,02,43,11.40
2016,04,20,02,44,11.40
2016,04,20,02,45,11.40
2016,04,20,02,46,11.40
2016,04,20,02,47,11.40
2016,04,20,02,48,11.40
2016,04,20,02,49,11.40
2016,04,20,02,50,11.30
2016,04,20,02,51,11.30
2016,04,20,02,52,11.30
2016,04,20,02,53,11.30
2016,04,20,02,54,11.30
2016,04,20,02,55,11.30
2016,04,20,02,56,11.30
2016,04,20,02,57,11.30
2016,04,20,02,58,11.30
2016,04,20,02,59,11.30
2016,04,20,03,00,11.30
2016,04,20,03,01,11.30
2016,04,20,03,02,11.30
2016,04,20,03,03,11.30
2016,04,20,03,04,11.30
2016,04,20,03,05,11.30
2016,04,20,03,06,11.30
2016,04,20,03,07,11.30
2016,04,20,03,08,11.30
2016,04,20,03,09,11.30
2016,04,20,03,10,11.30
2016,04,20,03,11,11.30
2016,04,20,03,12,11.30
2016,04,20,03,13,11.30
2016,04,20,03,14,11.30
2016,04,20,03,15,11.30
2016,04,20,03,16,11.30
2016,04,20,03,17,11.30
2016,04,20,03,18,11.30
2016,04,20,03,19,11.30
2016,04,20,03,20,11.30
2016,04,20,03,21,11.30
2016,04,20,03,22,11.30
2016,04,20,03,23,11.30
2016,04,20,03,24,11.30
2016,04,20,03,25,11.30
2016,04,20,03,26,11.30
2016,04,20,03,27,11.30
2016,04,20,03,28,11.30
2016,04,20,03,29,11.30
2016,04,20,03,30,11.30
2016,04,20,03,31,11.30
2016,04,20,03,32,11.30
2016,04,20,03,33,11.30
2016,04,20,03,34,11.20
2016,04,20,03,35,11.20
2016,04,20,03,36,11.20
2016,04,20,03,37,11.20
2016,04,20,03,38,11.20
2016,04,20,03,39,11.20
2016,04,20,03,40,11.30
2016,04,20,03,41,11.30
2016,04,20,03,42,11.30
2016,04,20,03,43,11.30
2016,04,20,03,44,11.30
2016,04,20,03,45,11.30
2016,04,20,03,46,11.30
2016,04,20,03,47,11.40
2016,04,20,03,48,11.40
2016,04,20,03,49,11.40
2016,04,20,03,50,11.40
2016,04,20,03,51,11.40
2016,04,20,03,52,11.40
2016,04,20,03,53,11.40
2016,04,20,03,54,11.40
2016,04,20,03,55,11.40
2016,04,20,03,56,11.40
2016,04,20,03,57,11.40
2016,04,20,03,58,11.40
2016,04,20,03,59,11.40
2016,04,20,04,00,11.50
2016,04,20,04,01,11.50
2016,04,20,04,02,11.50
2016,04,20,04,03,11.50
2016,04,20,04,04,11.50
2016,04,20,04,05,11.50
2016,04,20,04,06,11.50
2016,04,20,04,07,11.50
2016,04,20,04,08,11.50
2016,04,20,04,09,11.50
2016,04,20,04,10,11.50
2016,04,20,04,11,11.50
2016,04,20,04,12,11.50
2016,04,20,04,13,11.50
2016,04,20,04,14,11.40
2016,04,20,04,15,11.40
2016,04,20,04,16,11.40
2016,04,20,04,17,11.40
2016,04,20,04,18,11.40
2016,04,20,04,19,11.40
2016,04,20,04,20,11.40
2016,04,20,04,21,11.40
2016,04,20,04,22,11.40
2016,04,20,04,23,11.40
2016,04,20,04,24,11.40
2016,04,20,04,25,11.50
2016,04,20,04,26,11.50
2016,04,20,04,27,11.50
2016,04,20,04,28,11.50
2016,04,20,04,29,11.50
2016,04,20,04,30,11.50
2016,04,20,04,31,11.50
2016,04,20,04,32,11.50
2016,04,20,04,33,11.40
2016,04,20,04,34,11.40
2016,04,20,04,35,11.40
2016,04,20,04,36,11.40
2016,04,20,04,37,11.30
2016,04,20,04,38,11.30
2016,04,20,04,39,11.30
2016,04,20,04,40,11.30
2016,04,20,04,41,11.20
2016,04,20,04,42,11.20
2016,04,20,04,43,11.20
2016,04,20,04,44,11.20
2016,04,20,04,45,11.10
2016,04,20,04,46,11.10
2016,04,20,04,47,11.10
2016,04,20,04,48,11.10
2016,04,20,04,49,11.10
2016,04,20,04,50,11.10
2016,04,20,04,51,11.10
2016,04,20,04,52,11.00
2016,04,20,04,53,11.00
2016,04,20,04,54,10.90
2016,04,20,04,55,10.90
2016,04,20,04,56,10.90
2016,04,20,04,57,10.90
2016,04,20,04,58,10.90
2016,04,20,04,59,10.90
2016,04,20,05,00,10.90
2016,04,20,05,01,10.90
2016,04,20,05,02,10.90
2016,04,20,05,03,10.90
2016,04,20,05,04,10.90
2016,04,20,05,05,10.90
2016,04,20,05,06,10.90
2016,04,20,05,07,10.90
2016,04,20,05,08,10.80
2016,04,20,05,09,10.80
2016,04,20,05,10,10.80
2016,04,20,05,11,10.80
2016,04,20,05,12,10.80
2016,04,20,05,13,10.80
2016,04,20,05,14,10.80
2016,04,20,05,15,10.80
2016,04,20,05,16,10.70
2016,04,20,05,17,10.70
2016,04,20,05,18,10.70
2016,04,20,05,19,10.70
2016,04,20,05,20,10.70
2016,04,20,05,21,10.70
2016,04,20,05,22,10.70
2016,04,20,05,23,10.70
2016,04,20,05,24,10.70
2016,04,20,05,25,10.70
2016,04,20,05,26,10.70
2016,04,20,05,27,10.70
2016,04,20,05,28,10.70
2016,04,20,05,29,10.70
2016,04,20,05,30,10.70
2016,04,20,05,31,10.70
2016,04,20,05,32,10.70
2016,04,20,05,33,10.70
2016,04,20,05,34,10.70
2016,04,20,05,35,10.70
2016,04,20,05,36,10.70
2016,04,20,05,37,10.70
2016,04,20,05,38,10.60
2016,04,20,05,39,10.60
2016,04,20,05,40,10.60
2016,04,20,05,41,10.60
2016,04,20,05,42,10.60
2016,04,20,05,43,10.60
2016,04,20,05,44,10.60
2016,04,20,05,45,10.60
2016,04,20,05,46,10.50
2016,04,20,05,47,10.50
2016,04,20,05,48,10.50
2016,04,20,05,49,10.50
2016,04,20,05,50,10.40
2016,04,20,05,51,10.40
2016,04,20,05,52,10.40
2016,04,20,05,53,10.40
2016,04,20,05,54,10.40
2016,04,20,05,55,10.40
2016,04,20,05,56,10.30
2016,04,20,05,57,10.30
2016,04,20,05,58,10.30
2016,04,20,05,59,10.30
2016,04,20,06,00,10.20
2016,04,20,06,01,10.20
2016,04,20,06,02,10.20
2016,04,20,06,03,10.20
2016,04,20,06,04,10.20
2016,04,20,06,05,10.10
2016,04,20,06,06,10.10
2016,04,20,06,07,10.10
2016,04,20,06,08,10.10
2016,04,20,06,09,10.10
2016,04,20,06,10,10.10
2016,04,20,06,11,10.10
2016,04,20,06,12,10.10
2016,04,20,06,13,10.10
2016,04,20,06,14,10.10
2016,04,20,06,15,10.10
2016,04,20,06,16,10.00
2016,04,20,06,17,10.00
2016,04,20,06,18,10.00
2016,04,20,06,19,10.00
2016,04,20,06,20,10.00
2016,04,20,06,21,10.00
2016,04,20,06,22,9.90
2016,04,20,06,23,9.90
2016,04,20,06,24,9.90
2016,04,20,06,25,9.90
2016,04,20,06,26,9.90
2016,04,20,06,27,9.90
2016,04,20,06,28,9.90
2016,04,20,06,29,9.90
2016,04,20,06,30,9.90
2016,04,20,06,31,9.90
2016,04,20,06,32,9.90
2016,04,20,06,33,9.90
2016,04,20,06,34,9.80
2016,04,20,06,35,9.80
2016,04,20,06,36,9.80
2016,04,20,06,37,9.80
2016,04,20,06,38,9.80
2016,04,20,06,39,9.80
2016,04,20,06,40,9.80
2016,04,20,06,41,9.80
2016,04,20,06,42,9.80
2016,04,20,06,43,9.80
2016,04,20,06,44,9.90
2016,04,20,06,45,9.80
2016,04,20,06,46,9.80
2016,04,20,06,47,9.90
2016,04,20,06,48,9.90
2016,04,20,06,49,9.80
2016,04,20,06,50,9.80
2016,04,20,06,51,9.80
2016,04,20,06,52,9.80
2016,04,20,06,53,9.80
2016,04,20,06,54,9.80
2016,04,20,06,55,9.80
2016,04,20,06,56,9.80
2016,04,20,06,57,9.80
2016,04,20,06,58,9.90
2016,04,20,06,59,9.90
2016,04,20,07,00,9.90
2016,04,20,07,01,9.90
2016,04,20,07,02,9.90
2016,04,20,07,03,9.90
2016,04,20,07,04,9.90
2016,04,20,07,05,9.90
2016,04,20,07,06,9.90
2016,04,20,07,07,9.90
2016,04,20,07,08,10.00
2016,04,20,07,09,10.00
2016,04,20,07,10,10.00
2016,04,20,07,11,10.00
2016,04,20,07,12,10.10
2016,04,20,07,13,10.10
2016,04,20,07,14,10.10
2016,04,20,07,15,10.20
2016,04,20,07,16,10.20
2016,04,20,07,17,10.20
2016,04,20,07,18,10.30
2016,04,20,07,19,10.30
2016,04,20,07,20,10.40
2016,04,20,07,21,10.40
2016,04,20,07,22,10.50
2016,04,20,07,23,10.60
2016,04,20,07,24,10.60
2016,04,20,07,25,10.70
2016,04,20,07,26,10.70
2016,04,20,07,27,10.80
2016,04,20,07,28,10.90
2016,04,20,07,29,11.00
2016,04,20,07,30,11.00
2016,04,20,07,31,11.10
2016,04,20,07,32,11.20
2016,04,20,07,33,11.20
2016,04,20,07,34,11.30
2016,04,20,07,35,11.40
2016,04,20,07,36,11.50
2016,04,20,07,37,11.60
2016,04,20,07,38,11.70
2016,04,20,07,39,11.80
2016,04,20,07,40,11.90
2016,04,20,07,41,12.00
2016,04,20,07,42,12.10
2016,04,20,07,43,12.10
2016,04,20,07,44,12.20
2016,04,20,07,45,12.30
2016,04,20,07,46,12.40
2016,04,20,07,47,12.50
2016,04,20,07,48,12.60
2016,04,20,07,49,12.70
2016,04,20,07,50,12.70
2016,04,20,07,51,12.80
2016,04,20,07,52,12.90
2016,04,20,07,53,13.00
2016,04,20,07,54,13.10
2016,04,20,07,55,13.20
2016,04,20,07,56,13.30
2016,04,20,07,57,13.40
2016,04,20,07,58,13.50
2016,04,20,07,59,13.60
2016,04,20,08,00,13.70
2016,04,20,08,01,13.80
2016,04,20,08,02,14.00
2016,04,20,08,03,14.10
2016,04,20,08,04,14.20
2016,04,20,08,05,14.30
2016,04,20,08,06,14.40
2016,04,20,08,07,14.50
2016,04,20,08,08,14.50
2016,04,20,08,09,14.60
2016,04,20,08,10,14.70
2016,04,20,08,11,14.80
2016,04,20,08,12,14.80
2016,04,20,08,13,14.80
2016,04,20,08,14,14.90
2016,04,20,08,15,14.90
2016,04,20,08,16,15.00
2016,04,20,08,17,15.00
2016,04,20,08,18,15.10
2016,04,20,08,19,15.10
2016,04,20,08,20,15.10
2016,04,20,08,21,15.10
2016,04,20,08,22,15.10
2016,04,20,08,23,15.10
2016,04,20,08,24,15.10
2016,04,20,08,25,15.10
2016,04,20,08,26,15.10
2016,04,20,08,27,15.20
2016,04,20,08,28,15.20
2016,04,20,08,29,15.20
2016,04,20,08,30,15.30
2016,04,20,08,31,15.30
2016,04,20,08,32,15.30
2016,04,20,08,33,15.30
2016,04,20,08,34,15.30
2016,04,20,08,35,15.30
2016,04,20,08,36,15.30
2016,04,20,08,37,15.30
2016,04,20,08,38,15.30
2016,04,20,08,39,15.30
2016,04,20,08,40,15.30
2016,04,20,08,41,15.30
2016,04,20,08,42,15.30
2016,04,20,08,43,15.30
2016,04,20,08,44,15.30
2016,04,20,08,45,15.30
2016,04,20,08,46,15.30
2016,04,20,08,47,15.30
2016,04,20,08,48,15.40
2016,04,20,08,49,15.40
2016,04,20,08,50,15.40
2016,04,20,08,51,15.50
2016,04,20,08,52,15.50
2016,04,20,08,53,15.60
2016,04,20,08,54,15.60
2016,04,20,08,55,15.70
2016,04,20,08,56,15.70
2016,04,20,08,57,15.80
2016,04,20,08,58,15.80
2016,04,20,08,59,15.80
2016,04,20,09,00,15.90
2016,04,20,09,01,15.90
2016,04,20,09,02,16.00
2016,04,20,09,03,16.10
2016,04,20,09,04,16.10
2016,04,20,09,05,16.20
2016,04,20,09,06,16.20
2016,04,20,09,07,16.30
2016,04,20,09,08,16.30
2016,04,20,09,09,16.40
2016,04,20,09,10,16.40
2016,04,20,09,11,16.40
2016,04,20,09,12,16.40
2016,04,20,09,13,16.40
2016,04,20,09,14,16.40
2016,04,20,09,15,16.40
2016,04,20,09,16,16.40
2016,04,20,09,17,16.40
2016,04,20,09,18,16.40
2016,04,20,09,19,16.30
2016,04,20,09,20,16.30
2016,04,20,09,21,16.30
2016,04,20,09,22,16.30
2016,04,20,09,23,16.30
2016,04,20,09,24,16.40
2016,04,20,09,25,16.50
2016,04,20,09,26,16.50
2016,04,20,09,27,16.60
2016,04,20,09,28,16.70
2016,04,20,09,29,16.80
2016,04,20,09,30,16.90
2016,04,20,09,31,17.00
2016,04,20,09,32,17.10
2016,04,20,09,33,17.20
2016,04,20,09,34,17.30
2016,04,20,09,35,17.30
2016,04,20,09,36,17.40
2016,04,20,09,37,17.50
2016,04,20,09,38,17.60
2016,04,20,09,39,17.60
2016,04,20,09,40,17.70
2016,04,20,09,41,17.70
2016,04,20,09,42,17.70
2016,04,20,09,43,17.80
2016,04,20,09,44,17.80
2016,04,20,09,45,17.90
2016,04,20,09,46,17.90
2016,04,20,09,47,17.90
2016,04,20,09,48,17.80
2016,04,20,09,49,17.80
2016,04,20,09,50,17.70
2016,04,20,09,51,17.70
2016,04,20,09,52,17.60
2016,04,20,09,53,17.60
2016,04,20,09,54,17.60
2016,04,20,09,55,17.50
2016,04,20,09,56,17.50
2016,04,20,09,57,17.50
2016,04,20,09,58,17.40
2016,04,20,09,59,17.40
2016,04,20,10,00,17.40
2016,04,20,10,01,17.50
2016,04,20,10,02,17.50
2016,04,20,10,03,17.50
2016,04,20,10,04,17.60
2016,04,20,10,05,17.60
2016,04,20,10,06,17.60
2016,04,20,10,07,17.60
2016,04,20,10,08,17.60
2016,04,20,10,09,17.60
2016,04,20,10,10,17.70
2016,04,20,10,11,17.70
2016,04,20,10,12,17.70
2016,04,20,10,13,17.70
2016,04,20,10,14,17.60
2016,04,20,10,15,17.60
2016,04,20,10,16,17.60
2016,04,20,10,17,17.50
2016,04,20,10,18,17.50
2016,04,20,10,19,17.50
2016,04,20,10,20,17.40
2016,04,20,10,21,17.40
2016,04,20,10,22,17.40
2016,04,20,10,23,17.40
2016,04,20,10,24,17.50
2016,04,20,10,25,17.60
2016,04,20,10,26,17.60
2016,04,20,10,27,17.60
2016,04,20,10,28,17.60
2016,04,20,10,29,17.70
2016,04,20,10,30,17.70
2016,04,20,10,31,17.80
2016,04,20,10,32,17.80
2016,04,20,10,33,17.90
2016,04,20,10,34,18.00
2016,04,20,10,35,18.10
2016,04,20,10,36,18.20
2016,04,20,10,37,18.20
2016,04,20,10,38,18.30
2016,04,20,10,39,18.30
2016,04,20,10,40,18.30
2016,04,20,10,41,18.30
2016,04,20,10,42,18.30
2016,04,20,10,43,18.30
2016,04,20,10,44,18.30
2016,04,20,10,45,18.30
2016,04,20,10,46,18.20
2016,04,20,10,47,18.20
2016,04,20,10,48,18.20
2016,04,20,10,49,18.10
2016,04,20,10,50,18.00
2016,04,20,10,51,18.00
2016,04,20,10,52,17.90
2016,04,20,10,53,17.90
2016,04,20,10,54,17.80
2016,04,20,10,55,17.80
2016,04,20,10,56,17.80
2016,04,20,10,57,17.80
2016,04,20,10,58,17.80
2016,04,20,10,59,17.90
2016,04,20,11,00,17.90
2016,04,20,11,01,18.00
2016,04,20,11,02,18.10
2016,04,20,11,03,18.10
2016,04,20,11,04,18.20
2016,04,20,11,05,18.30
2016,04,20,11,06,18.30
2016,04,20,11,07,18.40
2016,04,20,11,08,18.50
2016,04,20,11,09,18.50
2016,04,20,11,10,18.60
2016,04,20,11,11,18.60
2016,04,20,11,12,18.70
2016,04,20,11,13,18.70
2016,04,20,11,14,18.70
2016,04,20,11,15,18.80
2016,04,20,11,16,18.80
2016,04,20,11,17,18.80
2016,04,20,11,18,18.80
2016,04,20,11,19,18.90
2016,04,20,11,20,18.90
2016,04,20,11,21,18.90
2016,04,20,11,22,19.00
2016,04,20,11,23,19.00
2016,04,20,11,24,19.10
2016,04,20,11,25,19.10
2016,04,20,11,26,19.20
2016,04,20,11,27,19.30
2016,04,20,11,28,19.30
2016,04,20,11,29,19.30
2016,04,20,11,30,19.30
2016,04,20,11,31,19.30
2016,04,20,11,32,19.30
2016,04,20,11,33,19.30
2016,04,20,11,34,19.30
2016,04,20,11,35,19.40
2016,04,20,11,36,19.50
2016,04,20,11,37,19.50
2016,04,20,11,38,19.50
2016,04,20,11,39,19.60
2016,04,20,11,40,19.60
2016,04,20,11,41,19.70
2016,04,20,11,42,19.80
2016,04,20,11,43,19.80
2016,04,20,11,44,20.00
2016,04,20,11,45,20.10
2016,04,20,11,46,20.20
2016,04,20,11,47,20.30
2016,04,20,11,48,20.40
2016,04,20,11,49,20.40
2016,04,20,11,50,20.40
2016,04,20,11,51,20.50
2016,04,20,11,52,20.50
2016,04,20,11,53,20.50
2016,04,20,11,54,20.50
2016,04,20,11,55,20.60
2016,04,20,11,56,20.60
2016,04,20,11,57,20.70
2016,04,20,11,58,20.70
2016,04,20,11,59,20.80
2016,04,20,12,00,20.80
2016,04,20,12,01,20.90
2016,04,20,12,02,20.90
2016,04,20,12,03,20.90
2016,04,20,12,04,21.00
2016,04,20,12,05,21.00
2016,04,20,12,06,21.00
2016,04,20,12,07,21.00
2016,04,20,12,08,21.00
2016,04,20,12,09,21.00
2016,04,20,12,10,21.00
2016,04,20,12,11,21.00
2016,04,20,12,12,20.90
2016,04,20,12,13,20.90
2016,04,20,12,14,20.90
2016,04,20,12,15,20.90
2016,04,20,12,16,20.90
2016,04,20,12,17,20.90
2016,04,20,12,18,20.90
2016,04,20,12,19,20.80
2016,04,20,12,20,20.80
2016,04,20,12,21,20.80
2016,04,20,12,22,20.80
2016,04,20,12,23,20.80
2016,04,20,12,24,20.90
2016,04,20,12,25,20.90
2016,04,20,12,26,20.90
2016,04,20,12,27,20.90
2016,04,20,12,28,21.00
2016,04,20,12,29,21.00
2016,04,20,12,30,21.00
2016,04,20,12,31,21.00
2016,04,20,12,32,21.00
2016,04,20,12,33,21.00
2016,04,20,12,34,20.90
2016,04,20,12,35,20.90
2016,04,20,12,36,20.90
2016,04,20,12,37,20.80
2016,04,20,12,38,20.80
2016,04,20,12,39,20.80
2016,04,20,12,40,20.70
2016,04,20,12,41,20.70
2016,04,20,12,42,20.80
2016,04,20,12,43,20.80
2016,04,20,12,44,20.80
2016,04,20,12,45,20.80
2016,04,20,12,46,20.80
2016,04,20,12,47,20.90
2016,04,20,12,48,20.90
2016,04,20,12,49,20.90
2016,04,20,12,50,20.90
2016,04,20,12,51,20.90
2016,04,20,12,52,20.90
2016,04,20,12,53,20.90
2016,04,20,12,54,20.90
2016,04,20,12,55,20.90
2016,04,20,12,56,21.00
2016,04,20,12,57,21.10
2016,04,20,12,58,21.20
2016,04,20,12,59,21.30
2016,04,20,13,00,21.30
2016,04,20,13,01,21.30
2016,04,20,13,02,21.30
2016,04,20,13,03,21.30
2016,04,20,13,04,21.30
2016,04,20,13,05,21.30
2016,04,20,13,06,21.30
2016,04,20,13,07,21.30
2016,04,20,13,08,21.40
2016,04,20,13,09,21.50
2016,04,20,13,10,21.50
2016,04,20,13,11,21.50
2016,04,20,13,12,21.40
2016,04,20,13,13,21.40
2016,04,20,13,14,21.40
2016,04,20,13,15,21.30
2016,04,20,13,16,21.30
2016,04,20,13,17,21.30
2016,04,20,13,18,21.30
2016,04,20,13,19,21.30
2016,04,20,13,20,21.30
2016,04,20,13,21,21.30
2016,04,20,13,22,21.30
2016,04,20,13,23,21.30
2016,04,20,13,24,21.30
2016,04,20,13,25,21.30
2016,04,20,13,26,21.20
2016,04,20,13,27,21.20
2016,04,20,13,28,21.20
2016,04,20,13,29,21.20
2016,04,20,13,30,21.20
2016,04,20,13,31,21.30
2016,04,20,13,32,21.30
2016,04,20,13,33,21.40
2016,04,20,13,34,21.40
2016,04,20,13,35,21.50
2016,04,20,13,36,21.60
2016,04,20,13,37,21.70
2016,04,20,13,38,21.80
2016,04,20,13,39,21.90
2016,04,20,13,40,22.00
2016,04,20,13,41,22.10
2016,04,20,13,42,22.20
2016,04,20,13,43,22.20
2016,04,20,13,44,22.30
2016,04,20,13,45,22.40
2016,04,20,13,46,22.40
2016,04,20,13,47,22.40
2016,04,20,13,48,22.40
2016,04,20,13,49,22.30
2016,04,20,13,50,22.20
2016,04,20,13,51,22.20
2016,04,20,13,52,22.10
2016,04,20,13,53,22.00
2016,04,20,13,54,22.00
2016,04,20,13,55,21.90
2016,04,20,13,56,21.90
2016,04,20,13,57,22.00
2016,04,20,13,58,22.00
2016,04,20,13,59,22.10
2016,04,20,14,00,22.10
2016,04,20,14,01,22.10
2016,04,20,14,02,22.20
2016,04,20,14,03,22.20
2016,04,20,14,04,22.20
2016,04,20,14,05,22.20
2016,04,20,14,06,22.20
2016,04,20,14,07,22.20
2016,04,20,14,08,22.30
2016,04,20,14,09,22.30
2016,04,20,14,10,22.40
2016,04,20,14,11,22.50
2016,04,20,14,12,22.60
2016,04,20,14,13,22.80
2016,04,20,14,14,22.90
2016,04,20,14,15,23.10
2016,04,20,14,16,23.20
2016,04,20,14,17,23.40
2016,04,20,14,18,23.50
2016,04,20,14,19,23.70
2016,04,20,14,20,23.70
2016,04,20,14,21,23.70
2016,04,20,14,22,23.80
2016,04,20,14,23,23.70
2016,04,20,14,24,23.70
2016,04,20,14,25,23.70
2016,04,20,14,26,23.70
2016,04,20,14,27,23.60
2016,04,20,14,28,23.50
2016,04,20,14,29,23.50
2016,04,20,14,30,23.40
2016,04,20,14,31,23.50
2016,04,20,14,32,23.60
2016,04,20,14,33,23.70
2016,04,20,14,34,23.70
2016,04,20,14,35,23.70
2016,04,20,14,36,23.70
2016,04,20,14,37,23.70
2016,04,20,14,38,23.80
2016,04,20,14,39,23.90
2016,04,20,14,40,24.00
2016,04,20,14,41,24.10
2016,04,20,14,42,24.20
2016,04,20,14,43,24.30
2016,04,20,14,44,24.40
2016,04,20,14,45,24.40
2016,04,20,14,46,24.50
2016,04,20,14,47,24.50
2016,04,20,14,48,24.40
2016,04,20,14,49,24.40
2016,04,20,14,50,24.30
2016,04,20,14,51,24.20
2016,04,20,14,52,24.20
2016,04,20,14,53,24.10
2016,04,20,14,54,24.20
2016,04,20,14,55,24.20
2016,04,20,14,56,24.30
2016,04,20,14,57,24.40
2016,04,20,14,58,24.30
2016,04,20,14,59,24.20
2016,04,20,15,00,24.10
2016,04,20,15,01,23.90
2016,04,20,15,02,23.80
2016,04,20,15,03,23.80
2016,04,20,15,04,23.80
2016,04,20,15,05,23.80
2016,04,20,15,06,23.80
2016,04,20,15,07,23.80
2016,04,20,15,08,23.90
2016,04,20,15,09,23.90
2016,04,20,15,10,23.90
2016,04,20,15,11,24.00
2016,04,20,15,12,24.00
2016,04,20,15,13,24.10
2016,04,20,15,14,24.10
2016,04,20,15,15,24.20
2016,04,20,15,16,24.30
2016,04,20,15,17,24.30
2016,04,20,15,18,24.40
2016,04,20,15,19,24.50
2016,04,20,15,20,24.50
2016,04,20,15,21,24.60
2016,04,20,15,22,24.60
2016,04,20,15,23,24.70
2016,04,20,15,24,24.70
2016,04,20,15,25,24.70
2016,04,20,15,26,24.70
2016,04,20,15,27,24.70
2016,04,20,15,28,24.70
2016,04,20,15,29,24.70
2016,04,20,15,30,24.80
2016,04,20,15,31,24.80
2016,04,20,15,32,24.90
2016,04,20,15,33,25.00
2016,04,20,15,34,25.10
2016,04,20,15,35,25.20
2016,04,20,15,36,25.30
2016,04,20,15,37,25.40
2016,04,20,15,38,25.50
2016,04,20,15,39,25.60
2016,04,20,15,40,25.70
2016,04,20,15,41,25.70
2016,04,20,15,42,25.70
2016,04,20,15,43,25.80
2016,04,20,15,44,25.70
2016,04,20,15,45,25.70
2016,04,20,15,46,25.70
2016,04,20,15,47,25.60
2016,04,20,15,48,25.50
2016,04,20,15,49,25.40
2016,04,20,15,50,25.40
2016,04,20,15,51,25.40
2016,04,20,15,52,25.40
2016,04,20,15,53,25.40
2016,04,20,15,54,25.50
2016,04,20,15,55,25.50
2016,04,20,15,56,25.50
2016,04,20,15,57,25.60
2016,04,20,15,58,25.60
2016,04,20,15,59,25.70
2016,04,20,16,00,25.80
2016,04,20,16,01,25.90
2016,04,20,16,02,26.00
2016,04,20,16,03,26.10
2016,04,20,16,04,26.10
2016,04,20,16,05,26.10
2016,04,20,16,06,26.00
2016,04,20,16,07,25.90
2016,04,20,16,08,25.90
2016,04,20,16,09,25.90
2016,04,20,16,10,26.00
2016,04,20,16,11,25.90
2016,04,20,16,12,25.90
2016,04,20,16,13,25.80
2016,04,20,16,14,25.70
2016,04,20,16,15,25.70
2016,04,20,16,16,25.60
2016,04,20,16,17,25.60
2016,04,20,16,18,25.60
2016,04,20,16,19,25.60
2016,04,20,16,20,25.70
2016,04,20,16,21,25.70
2016,04,20,16,22,25.70
2016,04,20,16,23,25.70
2016,04,20,16,24,25.70
2016,04,20,16,25,25.60
2016,04,20,16,26,25.60
2016,04,20,16,27,25.60
2016,04,20,16,28,25.50
2016,04,20,16,29,25.50
2016,04,20,16,30,25.40
2016,04,20,16,31,25.40
2016,04,20,16,32,25.30
2016,04,20,16,33,25.30
2016,04,20,16,34,25.30
2016,04,20,16,35,25.30
2016,04,20,16,36,25.20
2016,04,20,16,37,25.20
2016,04,20,16,38,25.20
2016,04,20,16,39,25.10
2016,04,20,16,40,25.10
2016,04,20,16,41,25.10
2016,04,20,16,42,25.10
2016,04,20,16,43,25.10
2016,04,20,16,44,25.00
2016,04,20,16,45,25.00
2016,04,20,16,46,24.90
2016,04,20,16,47,24.90
2016,04,20,16,48,24.90
2016,04,20,16,49,24.80
2016,04,20,16,50,24.80
2016,04,20,16,51,24.70
2016,04,20,16,52,24.70
2016,04,20,16,53,24.70
2016,04,20,16,54,24.70
2016,04,20,16,55,24.70
2016,04,20,16,56,24.70
2016,04,20,16,57,24.70
2016,04,20,16,58,24.70
2016,04,20,16,59,24.70
2016,04,20,17,00,24.60
2016,04,20,17,01,24.60
2016,04,20,17,02,24.60
2016,04,20,17,03,24.60
2016,04,20,17,04,24.50
2016,04,20,17,05,24.50
2016,04,20,17,06,24.50
2016,04,20,17,07,24.50
2016,04,20,17,08,24.60
2016,04,20,17,09,24.60
2016,04,20,17,10,24.60
2016,04,20,17,11,24.60
2016,04,20,17,12,24.70
2016,04,20,17,13,24.70
2016,04,20,17,14,24.70
2016,04,20,17,15,24.70
2016,04,20,17,16,24.60
2016,04,20,17,17,24.40
2016,04,20,17,18,24.20
2016,04,20,17,19,24.00
2016,04,20,17,20,23.90
2016,04,20,17,21,23.70